Previsão horária em Sendhwa

Hoje, 28 Novembro, Sábado

Tempo Temperatura Precipitação Vento Pressão Humidade
00:00 +19°C° 0 mm 3 m/s 727 mmHg 39%
01:00 +19°C° 0 mm 3 m/s 727 mmHg 41%
02:00 +18°C° 0 mm 3 m/s 727 mmHg 43%
03:00 +18°C° 0 mm 3 m/s 727 mmHg 43%
04:00 +17°C° 0 mm 3 m/s 727 mmHg 44%
05:00 +17°C° 0 mm 3 m/s 727 mmHg 47%
06:00 +18°C° 0 mm 3 m/s 728 mmHg 45%
07:00 +19°C° 0 mm 4 m/s 728 mmHg 43%
08:00 +20°C° 0 mm 4 m/s 729 mmHg 41%
09:00 +22°C° 0 mm 5 m/s 728 mmHg 38%
10:00 +25°C° 0 mm 5 m/s 728 mmHg 36%
11:00 +27°C° 0 mm 6 m/s 728 mmHg 32%
12:00 +28°C° 0 mm 6 m/s 727 mmHg 32%
13:00 +29°C° 0 mm 6 m/s 726 mmHg 32%
14:00 +30°C° 0 mm 6 m/s 725 mmHg 32%
15:00 +29°C° 0 mm 5 m/s 725 mmHg 34%
16:00 +28°C° 0 mm 4 m/s 725 mmHg 36%
17:00 +27°C° 0 mm 4 m/s 725 mmHg 39%
18:00 +26°C° 0 mm 4 m/s 726 mmHg 41%
19:00 +25°C° 0 mm 4 m/s 726 mmHg 44%
20:00 +23°C° 0 mm 4 m/s 727 mmHg 46%
21:00 +24°C° 0 mm 3 m/s 727 mmHg 46%
22:00 +24°C° 0 mm 3 m/s 727 mmHg 47%
23:00 +22°C° 0 mm 3 m/s 727 mmHg 48%

Amanhã, 29 Novembro, Domingo

Tempo Temperatura Precipitação Vento Pressão Humidade
00:00 +22°C° 0 mm 3 m/s 726 mmHg 49%
01:00 +21°C° 0 mm 3 m/s 726 mmHg 50%
02:00 +21°C° 0 mm 3 m/s 726 mmHg 52%
03:00 +20°C° 0 mm 3 m/s 725 mmHg 53%
04:00 +20°C° 0 mm 2 m/s 725 mmHg 54%
05:00 +20°C° 0 mm 2 m/s 725 mmHg 56%
06:00 +21°C° 0 mm 2 m/s 726 mmHg 54%
07:00 +23°C° 0 mm 2 m/s 727 mmHg 52%
08:00 +24°C° 0 mm 3 m/s 727 mmHg 50%
09:00 +26°C° 0 mm 3 m/s 727 mmHg 47%
10:00 +28°C° 0 mm 3 m/s 727 mmHg 44%
11:00 +30°C° 0 mm 4 m/s 727 mmHg 40%
12:00 +31°C° 0 mm 3 m/s 726 mmHg 39%
13:00 +31°C° 0 mm 3 m/s 726 mmHg 38%
14:00 +33°C° 0 mm 3 m/s 725 mmHg 37%
15:00 +31°C° 0 mm 2 m/s 725 mmHg 39%
16:00 +31°C° 0 mm 2 m/s 725 mmHg 41%
17:00 +30°C° 0 mm 2 m/s 724 mmHg 43%
18:00 +29°C° 0 mm 2 m/s 725 mmHg 45%
19:00 +28°C° 0 mm 2 m/s 725 mmHg 47%
20:00 +27°C° 0 mm 3 m/s 726 mmHg 48%
21:00 +26°C° 0 mm 3 m/s 726 mmHg 49%
22:00 +26°C° 0 mm 3 m/s 726 mmHg 50%
23:00 +25°C° 0 mm 3 m/s 726 mmHg 50%

Depois de amanhã, 30 Novembro, Segunda-feira

Tempo Temperatura Precipitação Vento Pressão Humidade
00:00 +25°C° 0 mm 3 m/s 726 mmHg 50%
01:00 +25°C° 0 mm 2 m/s 725 mmHg 50%
02:00 +25°C° 0 mm 2 m/s 725 mmHg 50%
03:00 +25°C° 0 mm 2 m/s 725 mmHg 52%
04:00 +24°C° 0 mm 2 m/s 725 mmHg 53%
05:00 +24°C° 0 mm 2 m/s 725 mmHg 55%
06:00 +24°C° 0 mm 2 m/s 725 mmHg 54%
07:00 +25°C° 0 mm 2 m/s 726 mmHg 52%
08:00 +26°C° 0 mm 2 m/s 727 mmHg 51%
09:00 +28°C° 0 mm 2 m/s 727 mmHg 47%
10:00 +29°C° 0 mm 2 m/s 727 mmHg 43%
11:00 +31°C° 0 mm 2 m/s 726 mmHg 39%
12:00 +32°C° 0 mm 2 m/s 726 mmHg 37%
13:00 +34°C° 0 mm 2 m/s 725 mmHg 36%
14:00 +33°C° 0 mm 1 m/s 725 mmHg 34%
15:00 +32°C° 0 mm 2 m/s 725 mmHg 36%
16:00 +32°C° 0 mm 2 m/s 724 mmHg 37%
17:00 +31°C° 0 mm 2 m/s 724 mmHg 39%
18:00 +30°C° 0 mm 2 m/s 725 mmHg 41%
19:00 +29°C° 0 mm 2 m/s 725 mmHg 43%
20:00 +28°C° 0 mm 2 m/s 726 mmHg 46%
21:00 +27°C° 0 mm 2 m/s 726 mmHg 47%
22:00 +27°C° 0 mm 2 m/s 726 mmHg 48%
23:00 +27°C° 0 mm 2 m/s 726 mmHg 48%

1 Dezembro, Terça-feira

Tempo Temperatura Precipitação Vento Pressão Humidade
00:00 +26°C° 0 mm 2 m/s 726 mmHg 50%
01:00 +26°C° 0 mm 2 m/s 726 mmHg 51%
02:00 +25°C° 0 mm 2 m/s 725 mmHg 52%
03:00 +24°C° 0 mm 2 m/s 725 mmHg 53%
04:00 +24°C° 0 mm 1 m/s 725 mmHg 53%
05:00 +23°C° 0 mm 1 m/s 725 mmHg 54%
06:00 +24°C° 0 mm 1 m/s 726 mmHg 50%
07:00 +25°C° 0 mm 2 m/s 726 mmHg 47%
08:00 +26°C° 0 mm 2 m/s 727 mmHg 43%
09:00 +28°C° 0 mm 2 m/s 727 mmHg 38%
10:00 +29°C° 0 mm 3 m/s 727 mmHg 33%
11:00 +31°C° 0 mm 3 m/s 727 mmHg 27%
12:00 +33°C° 0 mm 3 m/s 726 mmHg 26%
13:00 +34°C° 0 mm 3 m/s 725 mmHg 25%
14:00 +34°C° 0 mm 4 m/s 725 mmHg 24%
15:00 +33°C° 0 mm 3 m/s 725 mmHg 25%
16:00 +31°C° 0 mm 3 m/s 725 mmHg 25%
17:00 +30°C° 0 mm 3 m/s 725 mmHg 26%
18:00 +29°C° 0 mm 3 m/s 725 mmHg 26%
19:00 +27°C° 0 mm 3 m/s 725 mmHg 26%
20:00 +26°C° 0 mm 3 m/s 726 mmHg 26%
21:00 +25°C° 0 mm 2 m/s 726 mmHg 26%
22:00 +25°C° 0 mm 2 m/s 726 mmHg 27%
23:00 +24°C° 0 mm 2 m/s 726 mmHg 27%

2 Dezembro, Quarta-feira

Tempo Temperatura Precipitação Vento Pressão Humidade
00:00 +23°C° 0 mm 1 m/s 726 mmHg 28%
01:00 +22°C° 0 mm 1 m/s 725 mmHg 30%
02:00 +22°C° 0 mm 1 m/s 725 mmHg 31%
03:00 +21°C° 0 mm 1 m/s 725 mmHg 32%
04:00 +21°C° 0 mm 1 m/s 725 mmHg 33%
05:00 +20°C° 0 mm 1 m/s 725 mmHg 34%
06:00 +21°C° 0 mm 1 m/s 725 mmHg 32%
07:00 +23°C° 0 mm 1 m/s 726 mmHg 31%
08:00 +24°C° 0 mm 1 m/s 727 mmHg 29%
09:00 +26°C° 0 mm 1 m/s 727 mmHg 27%
10:00 +28°C° 0 mm 2 m/s 727 mmHg 24%
11:00 +31°C° 0 mm 2 m/s 727 mmHg 21%
12:00 +31°C° 0 mm 2 m/s 726 mmHg 19%
13:00 +32°C° 0 mm 2 m/s 725 mmHg 17%
14:00 +34°C° 0 mm 2 m/s 724 mmHg 15%
15:00 +32°C° 0 mm 2 m/s 724 mmHg 17%
16:00 +31°C° 0 mm 2 m/s 724 mmHg 18%
17:00 +29°C° 0 mm 2 m/s 723 mmHg 20%
18:00 +28°C° 0 mm 2 m/s 724 mmHg 21%
19:00 +27°C° 0 mm 2 m/s 724 mmHg 22%
20:00 +25°C° 0 mm 2 m/s 724 mmHg 23%
21:00 +25°C° 0 mm 1 m/s 724 mmHg 24%
22:00 +24°C° 0 mm 1 m/s 725 mmHg 25%
23:00 +24°C° 0 mm 1 m/s 725 mmHg 26%

3 Dezembro, Quinta-feira

Tempo Temperatura Precipitação Vento Pressão Humidade
00:00 +23°C° 0 mm 1 m/s 724 mmHg 27%
01:00 +23°C° 0 mm 1 m/s 724 mmHg 28%
02:00 +22°C° 0 mm 1 m/s 723 mmHg 29%
03:00 +21°C° 0 mm 1 m/s 723 mmHg 30%
04:00 +19°C° 0 mm 0 m/s 723 mmHg 31%
05:00 +19°C° 0 mm 0 m/s 723 mmHg 32%
06:00 +20°C° 0 mm 0 m/s 724 mmHg 30%
07:00 +22°C° 0 mm 0 m/s 725 mmHg 28%
08:00 +23°C° 0 mm 0 m/s 725 mmHg 26%
09:00 +27°C° 0 mm 1 m/s 726 mmHg 23%
10:00 +29°C° 0 mm 1 m/s 726 mmHg 21%
11:00 +31°C° 0 mm 1 m/s 726 mmHg 19%
12:00 +32°C° 0 mm 1 m/s 725 mmHg 18%
13:00 +33°C° 0 mm 1 m/s 724 mmHg 17%
14:00 +33°C° 0 mm 1 m/s 723 mmHg 15%
15:00 +32°C° 0 mm 1 m/s 723 mmHg 17%
16:00 +31°C° 0 mm 1 m/s 723 mmHg 19%
17:00 +29°C° 0 mm 1 m/s 723 mmHg 22%
18:00 +28°C° 0 mm 1 m/s 723 mmHg 23%
19:00 +27°C° 0 mm 1 m/s 724 mmHg 24%
20:00 +26°C° 0 mm 1 m/s 724 mmHg 26%
21:00 +25°C° 0 mm 1 m/s 724 mmHg 27%
22:00 +25°C° 0 mm 1 m/s 724 mmHg 28%
23:00 +24°C° 0 mm 1 m/s 724 mmHg 30%
Mostrar mais

Necessitamos do seu Consentimento

A Meteoprog e os seus Fornecedores de Serviços podem armazenar e aceder a dados pessoais como cookies, identificadores do dispositivo ou outras tecnologias semelhantes existentes no seu dispositivo e processar estes dados para personalizar conteúdos e anúncios, assim como funcionalidades nas redes sociais e análise de tráfego.

  • Armazenar e/ou aceder a informações no seu dispositivo

    Os cookies, identificadores do dispositivo ou outras informações podem ser armazenados ou acedidos no seu dispositivo, para os fins acima indicados.

  • Anúncios e conteúdos personalizados, medição de anúncios e conteúdos, dados sobre o público-alvo e desenvolvimento de produtos

    Os anúncios e os conteúdos podem ser personalizados com base num perfil. Podem ser adicionados dados adicionais para uma maior personalização dos anúncios e dos conteúdos. A eficácia dos anúncios e dos conteúdos pode ser medida. Podem ser obtidas informações sobre o público que visualizou os anúncios e os conteúdos. Estes dados podem ser usados para desenvolver ou melhorar sistemas, softwares ou a experiência do utilizador.

Ao clicar em "Eu concordo”, permitirá o uso de cookies, identificadores do dispositivo e web beacons mencionados ou outras tecnologias semelhantes. As configurações do navegador do seu dispositivo podem ser alteradas.

Para certos fins, podem ser invocados interesses legítimos ao invés de consentimento. Pode ler mais informação sobre este assunto na nossa Política de Privacidade e Cookies.